Find Starlink 11558

NORAD ID: 63055 Int'l Des: 2025-035 Owner: SPXS Country: US Constellation: starlink operational
LEOCIRCULAR

实时位置

正在加载3D地球...

关于 Starlink 11558

正在加载描述...

即将过境

Passes for default location (London). Set your location on the main map for personalized predictions.

高度历史

Loading altitude history...

两行轨道根数

1 63055U 25035D 26124.82015517 .00265366 00000-0 20048-2 0 9992
2 63055 42.9997 36.5664 0003285 290.7297 69.3218 15.70854452 69943
Epoch: May 4, 2026 • Age: 7 hours

当前状态

高度 361.2 km
速度 7.69 km/s
星下点 -28.06°S, 90.1°E
发射日期 Feb 21, 2025
运行时间 1.1 years
类型 internet

技术详情

分类 Payload
质量 960.00 kg
干质量 910.00 kg
总质量 960.00 kg
长度 0.30 m
直径 4.10 m
跨度 29.00 m
形状 Box + pan
制造商 SPXS
平台类型 Starlink V2MD
阶段状态 In Orbit
所有者/国家 SPXS/US

Most Searched